TimePST,TemperatureF,Dew PointF,Humidity,Sea Level PressureIn,VisibilityMPH,Wind Direction,Wind SpeedMPH,Gust SpeedMPH,PrecipitationIn,Events,Conditions,WindDirDegrees,DateUTC
12:10 AM,48.2,48.2,100,30.20,0.2,West,6.9,-,N/A,Fog,Fog,280,2012-11-22 08:10:00
12:30 AM,48.2,48.2,100,30.21,1.2,WNW,3.5,-,N/A,,Mostly Cloudy,300,2012-11-22 08:30:00
12:50 AM,48.2,48.2,100,30.21,0.2,Calm,Calm,-,N/A,Fog,Fog,0,2012-11-22 08:50:00
1:10 AM,48.2,48.2,100,30.21,0.2,Calm,Calm,-,N/A,Fog,Fog,0,2012-11-22 09:10:00
1:30 AM,48.2,46.4,93,30.21,0.2,NNW,3.5,-,N/A,Fog,Fog,330,2012-11-22 09:30:00
1:50 AM,46.4,46.4,100,30.21,1.5,NW,5.8,-,N/A,,Mostly Cloudy,320,2012-11-22 09:50:00
2:10 AM,46.4,46.4,100,30.21,3.0,NNW,4.6,-,N/A,,Clear,340,2012-11-22 10:10:00
2:30 AM,46.4,46.4,100,30.22,2.5,NNW,4.6,-,N/A,,Clear,340,2012-11-22 10:30:00
2:50 AM,46.4,46.4,100,30.21,1.8,NNW,3.5,-,N/A,,Clear,330,2012-11-22 10:50:00
3:10 AM,46.4,46.4,100,30.21,0.5,Calm,Calm,-,N/A,Fog,Fog,0,2012-11-22 11:10:00
3:30 AM,46.4,46.4,100,30.21,0.2,NW,4.6,-,N/A,Fog,Fog,310,2012-11-22 11:30:00
3:50 AM,46.4,44.6,93,30.20,10.0,NNW,5.8,-,N/A,,Clear,330,2012-11-22 11:50:00
4:10 AM,44.6,44.6,100,30.20,10.0,NW,6.9,-,N/A,,Clear,320,2012-11-22 12:10:00
4:30 AM,44.6,44.6,100,30.20,10.0,North,4.6,-,N/A,,Clear,350,2012-11-22 12:30:00
4:50 AM,42.8,42.8,100,30.21,10.0,NNW,4.6,-,N/A,,Clear,340,2012-11-22 12:50:00
5:10 AM,42.8,41.0,93,30.22,10.0,NNW,5.8,-,N/A,,Clear,330,2012-11-22 13:10:00
5:30 AM,42.8,41.0,93,30.22,10.0,NW,4.6,-,N/A,,Clear,310,2012-11-22 13:30:00
5:50 AM,42.8,41.0,93,30.22,10.0,NNW,4.6,-,N/A,,Clear,330,2012-11-22 13:50:00
6:10 AM,42.8,41.0,93,30.22,10.0,Calm,Calm,-,N/A,,Clear,0,2012-11-22 14:10:00
6:30 AM,41.0,41.0,100,30.22,10.0,Calm,Calm,-,N/A,,Clear,0,2012-11-22 14:30:00
6:50 AM,42.8,41.0,93,30.23,10.0,NW,3.5,-,N/A,,Clear,320,2012-11-22 14:50:00
7:10 AM,41.0,41.0,100,30.25,9.0,NW,4.6,-,N/A,,Clear,320,2012-11-22 15:10:00
7:30 AM,42.8,41.0,93,30.25,9.0,NW,3.5,-,N/A,,Clear,320,2012-11-22 15:30:00
7:50 AM,44.6,42.8,93,30.25,10.0,Calm,Calm,-,N/A,,Clear,0,2012-11-22 15:50:00
8:10 AM,44.6,42.8,93,30.26,10.0,NNW,3.5,-,N/A,,Clear,330,2012-11-22 16:10:00
8:30 AM,46.4,44.6,93,30.27,10.0,North,4.6,-,N/A,,Clear,350,2012-11-22 16:30:00
8:50 AM,48.2,44.6,87,30.27,10.0,North,3.5,-,N/A,,Clear,350,2012-11-22 16:50:00
9:10 AM,48.2,44.6,87,30.27,10.0,NNW,5.8,-,N/A,,Clear,330,2012-11-22 17:10:00
9:30 AM,50.0,44.6,82,30.27,10.0,NNW,5.8,-,N/A,,Clear,340,2012-11-22 17:30:00
9:50 AM,50.0,44.6,82,30.27,10.0,NW,5.8,-,N/A,,Clear,320,2012-11-22 17:50:00
10:10 AM,51.8,44.6,76,30.28,9.0,WNW,6.9,-,N/A,,Clear,300,2012-11-22 18:10:00
10:30 AM,51.8,44.6,76,30.27,10.0,NNW,5.8,-,N/A,,Clear,330,2012-11-22 18:30:00
10:50 AM,53.6,44.6,72,30.26,10.0,WNW,4.6,-,N/A,,Clear,300,2012-11-22 18:50:00
11:10 AM,55.4,44.6,67,30.25,10.0,NW,5.8,-,N/A,,Clear,320,2012-11-22 19:10:00
11:30 AM,55.4,44.6,67,30.24,10.0,NW,4.6,-,N/A,,Clear,310,2012-11-22 19:30:00
11:50 AM,55.4,44.6,67,30.23,10.0,Calm,Calm,-,N/A,,Clear,0,2012-11-22 19:50:00
12:10 PM,57.2,44.6,63,30.23,10.0,NW,3.5,-,N/A,,Clear,310,2012-11-22 20:10:00
12:30 PM,57.2,46.4,67,30.22,10.0,NNW,3.5,-,N/A,,Clear,330,2012-11-22 20:30:00
12:50 PM,59.0,46.4,63,30.22,10.0,NW,5.8,-,N/A,,Clear,310,2012-11-22 20:50:00
1:10 PM,59.0,46.4,63,30.21,10.0,West,4.6,-,N/A,,Clear,280,2012-11-22 21:10:00
1:30 PM,59.0,46.4,63,30.21,10.0,WNW,4.6,-,N/A,,Clear,290,2012-11-22 21:30:00
1:50 PM,59.0,44.6,59,30.20,10.0,WNW,4.6,-,N/A,,Clear,300,2012-11-22 21:50:00
2:10 PM,59.0,44.6,59,30.20,10.0,NW,3.5,-,N/A,,Clear,320,2012-11-22 22:10:00
2:30 PM,59.0,44.6,59,30.20,10.0,NW,3.5,-,N/A,,Clear,320,2012-11-22 22:30:00
2:50 PM,60.8,46.4,59,30.20,9.0,NW,4.6,-,N/A,,Clear,310,2012-11-22 22:50:00
3:10 PM,60.8,46.4,59,30.20,10.0,NW,3.5,-,N/A,,Clear,310,2012-11-22 23:10:00
3:30 PM,59.0,46.4,63,30.20,7.0,North,3.5,-,N/A,,Clear,360,2012-11-22 23:30:00
3:50 PM,59.0,46.4,63,30.20,9.0,NNW,3.5,-,N/A,,Clear,340,2012-11-22 23:50:00
4:10 PM,59.0,46.4,63,30.21,9.0,NNW,4.6,-,N/A,,Clear,330,2012-11-23 00:10:00
4:30 PM,59.0,46.4,63,30.20,0.2,Calm,Calm,-,N/A,,Haze,0,2012-11-23 00:30:00
4:50 PM,57.2,46.4,67,30.20,4.0,Calm,Calm,-,N/A,,Haze,0,2012-11-23 00:50:00
5:10 PM,57.2,46.4,67,30.20,3.0,Calm,Calm,-,N/A,,Haze,0,2012-11-23 01:10:00
5:30 PM,55.4,46.4,72,30.20,5.0,Calm,Calm,-,N/A,,Haze,0,2012-11-23 01:30:00
5:50 PM,53.6,46.4,77,30.21,9.0,Calm,Calm,-,N/A,,Clear,0,2012-11-23 01:50:00
6:10 PM,51.8,46.4,82,30.21,0.2,Calm,Calm,-,N/A,,Haze,0,2012-11-23 02:10:00
6:30 PM,51.8,46.4,82,30.21,8.0,Calm,Calm,-,N/A,,Clear,0,2012-11-23 02:30:00
6:50 PM,51.8,44.6,76,30.22,10.0,Calm,Calm,-,N/A,,Clear,0,2012-11-23 02:50:00
7:10 PM,51.8,44.6,76,30.22,10.0,Calm,Calm,-,N/A,,Clear,0,2012-11-23 03:10:00
7:30 PM,50.0,44.6,82,30.22,1.0,Calm,Calm,-,N/A,,Haze,0,2012-11-23 03:30:00
7:50 PM,48.2,44.6,87,30.23,9.0,Calm,Calm,-,N/A,,Clear,0,2012-11-23 03:50:00
8:10 PM,50.0,44.6,82,30.23,10.0,ESE,3.5,-,N/A,,Clear,110,2012-11-23 04:10:00
8:30 PM,48.2,44.6,87,30.23,10.0,SE,4.6,-,N/A,,Clear,130,2012-11-23 04:30:00
8:50 PM,48.2,46.4,93,30.24,6.0,Calm,Calm,-,N/A,,Clear,0,2012-11-23 04:50:00
9:10 PM,48.2,46.4,93,30.24,5.0,South,3.5,-,N/A,,Clear,170,2012-11-23 05:10:00
9:30 PM,48.2,46.4,93,30.25,8.0,SE,3.5,-,N/A,,Clear,130,2012-11-23 05:30:00
9:50 PM,48.2,46.4,93,30.25,9.0,ESE,3.5,-,N/A,,Clear,120,2012-11-23 05:50:00
10:10 PM,48.2,44.6,87,30.25,9.0,SE,3.5,-,N/A,,Clear,130,2012-11-23 06:10:00
10:30 PM,48.2,44.6,87,30.25,9.0,Calm,Calm,-,N/A,,Clear,0,2012-11-23 06:30:00
10:50 PM,48.2,44.6,87,30.25,10.0,Calm,Calm,-,N/A,,Clear,0,2012-11-23 06:50:00
11:10 PM,46.4,44.6,93,30.26,9.0,Calm,Calm,-,N/A,,Clear,0,2012-11-23 07:10:00
11:30 PM,44.6,44.6,100,30.26,9.0,Calm,Calm,-,N/A,,Clear,0,2012-11-23 07:30:00
11:50 PM,44.6,42.8,93,30.26,9.0,ENE,3.5,-,N/A,,Clear,70,2012-11-23 07:50:00